Tuscaloosa, AL

4:32 AM CDT on August 22, 2017 (GMT -0500)
Tuscaloosa Municipal

Weather History for KTCL - September, 2013

Change the Weather History Date:

Sunday, September 8, 2013

  Actual Average Record
Temperature  
Mean Temperature 80 °F 78 °F  
Max Temperature 93 °F 89 °F 100 °F (1980)
Min Temperature 67 °F 67 °F 57 °F (1953)
Degree Days  
Heating Degree Days 0 0  
Month to date heating degree days 0 0  
Since 1 July heating degree days 0 0  
Cooling Degree Days 14    
Growing Degree Days 30 (Base 50)    
Moisture  
Dew Point 69 °F    
Average Humidity 69    
Maximum Humidity 94    
Minimum Humidity 44    
Precipitation  
Precipitation 0.00 in 0.13 in 3.10 in (1974)
Month to date precipitation 0.04 0.89  
Year to date precipitation 38.86 36.76  
Sea Level Pressure  
Sea Level Pressure 29.99 in    
Wind  
Wind Speed 1 mph (South)    
Max Wind Speed 8 mph    
Max Gust Speed 29 mph    
Visibility 5 miles    
Events      
T = Trace of Precipitation, MM = Missing Value Source: NWS Daily Summary

Daily Weather History Graph

Daily Weather History Graph

Search for Another Location

Airport or City:

Trip Planner

Search our weather history database for the weather conditions in past years. The results will help you decide how hot, cold, wet, or windy it might be!

Date:

Astronomy

Sep. 08, 2013 Rise Set
Actual Time 6:29 AM CDT 7:05 PM CDT
Civil Twilight 6:04 AM CDT 7:30 PM CDT
Nautical Twilight 5:35 AM CDT 8:00 PM CDT
Astronomical Twilight 5:05 AM CDT 8:30 PM CDT
Moon 9:33 AM CDT (9/8) 8:55 PM CDT (9/8)
Length of Visible Light 13h 26m
Length of Day
12h 36m
Waxing Crescent, 11% of the Moon is Illuminated
Sep 8
Waxing Crescent
Sep 12
First Quarter
Sep 19
Full
Sep 26
Last Quarter
Oct 4
New

Hourly Weather History & Observations

Time (CDT) Temp. Heat Index Dew Point Humidity Pressure Visibility Wind Dir Wind Speed Gust Speed Precip Events Conditions
12:53 AM 72.0 °F - 70.0 °F 93% 30.01 in 4.0 mi Calm Calm - N/A   Clear
1:53 AM 72.0 °F - 69.1 °F 91% 30.00 in 5.0 mi NE 3.5 mph - N/A   Clear
2:53 AM 71.1 °F - 69.1 °F 93% 29.99 in 4.0 mi Calm Calm - N/A   Clear
3:53 AM 71.1 °F - 68.0 °F 90% 29.99 in 4.0 mi Calm Calm - N/A   Clear
4:03 AM 69.8 °F - 68.0 °F 94% 29.99 in 1.8 mi Calm Calm - N/A   Clear
4:10 AM 69.8 °F - 68.0 °F 94% 29.99 in 2.5 mi Calm Calm - N/A   Clear
4:17 AM 69.8 °F - 66.2 °F 88% 29.99 in 5.0 mi Calm Calm - N/A   Clear
4:53 AM 69.1 °F - 66.9 °F 93% 29.98 in 4.0 mi Calm Calm - N/A   Clear
5:47 AM 66.2 °F - 66.2 °F 100% 30.00 in 1.8 mi Calm Calm - N/A   Clear
5:53 AM 68.0 °F - 66.0 °F 93% 29.99 in 1.5 mi Calm Calm - N/A   Clear
5:59 AM 68.0 °F - 66.2 °F 94% 30.00 in 3.0 mi Calm Calm - N/A   Clear
6:09 AM 68.0 °F - 66.2 °F 94% 30.00 in 1.8 mi Calm Calm - N/A   Clear
6:34 AM 69.8 °F - 66.2 °F 88% 30.01 in 2.5 mi Calm Calm - N/A   Clear
6:53 AM 68.0 °F - 66.0 °F 93% 30.01 in 2.0 mi Calm Calm - N/A   Clear
7:03 AM 69.8 °F - 66.2 °F 88% 30.01 in 4.0 mi Calm Calm - N/A   Clear
7:53 AM 73.0 °F - 69.1 °F 87% 30.02 in 5.0 mi Calm Calm - N/A   Clear
8:53 AM 79.0 °F - 70.0 °F 74% 30.03 in 6.0 mi Calm Calm - N/A   Haze
9:53 AM 84.0 °F 87.0 °F 68.0 °F 58% 30.02 in 8.0 mi Calm Calm - N/A   Clear
10:53 AM 87.1 °F 89.9 °F 66.9 °F 51% 30.02 in 9.0 mi Calm Calm - N/A   Clear
11:53 AM 89.1 °F 92.9 °F 68.0 °F 50% 30.01 in 9.0 mi Calm Calm - N/A   Clear
12:53 PM 91.0 °F 95.6 °F 69.1 °F 48% 30.01 in 9.0 mi Variable 4.6 mph - N/A   Scattered Clouds
1:53 PM 91.0 °F 95.6 °F 69.1 °F 48% 29.99 in 8.0 mi SE 3.5 mph - N/A   Scattered Clouds
2:53 PM 91.9 °F 95.9 °F 68.0 °F 45% 29.96 in 9.0 mi Variable 4.6 mph - N/A   Scattered Clouds
3:53 PM 93.0 °F 97.4 °F 68.0 °F 44% 29.95 in 8.0 mi SSW 5.8 mph - N/A   Mostly Cloudy
4:53 PM 91.9 °F 95.9 °F 68.0 °F 45% 29.95 in 9.0 mi WSW 4.6 mph - N/A   Clear
5:53 PM 90.0 °F 94.5 °F 69.1 °F 50% 29.94 in 8.0 mi South 4.6 mph - N/A   Clear
6:53 PM 84.0 °F 89.0 °F 71.1 °F 65% 29.94 in 8.0 mi Calm Calm - N/A   Clear
7:53 PM 80.1 °F 83.8 °F 72.0 °F 76% 29.96 in 8.0 mi Calm Calm - N/A   Clear
8:53 PM 77.0 °F - 72.0 °F 84% 29.97 in 7.0 mi Calm Calm - N/A   Clear
9:53 PM 75.9 °F - 73.0 °F 91% 29.98 in 5.0 mi Calm Calm - N/A   Clear
10:53 PM 75.0 °F - 73.0 °F 94% 29.99 in 4.0 mi Calm Calm - N/A   Clear
11:53 PM 75.0 °F - 72.0 °F 90% 29.99 in 4.0 mi Calm Calm - N/A   Clear